Weather in Gorazde

Bosnia and Herzegovina     43°39′38″N   18°58′10″E
temp.,
°C
wind,
m/s
gust,
m/s
humid.,
%
clouds,
%
prec.,
mm/h
press.,
hPa
HPBL,
m
17 april, sat
sat1723:00−1nne1188100 0.0 102217
02:00−2nne119253 0.0 102110
05:00−2nne1187100 0.0 102012
08:00+2ene126797 0.0 1018473
11:00+5e2355100 0.0 10161217
14:00+4e2278100 0.3 1015765
17:00+4e2284100 0.5 1015610
20:00+2ene1298100 0.7 1015228
18 april, sun
sun1823:00+1ene11100100 1.2 1015122
02:00+1e01100100 1.8 1015122
05:00+1nnw0099100 0.3 101476
08:00+2wnw0199100 0.3 1015139
11:00+4wsw1186100 0.1 1015632
14:00+7wsw0275100 0.1 1015960
17:00+6sse1179100 0.1 1014802
20:00+5ese1188100 0.1 101515
19 april, mon
mon1923:00+4ene119597 0.1 101635
02:00+3ne119786 0.1 101539
05:00+3ne1196100 0.1 101474
08:00+3n1198100 0.6 1014572
11:00+3n1197100 0.1 1014498
14:00+5n1190100 0.2 1013615
17:00+5n1290100 0.1 1012524
20:00+3n1295100 0.3 101361
20 april, tue
tue2023:00+3n1195100 0.0 101455
02:00+2wnw1196100 0.1 101417
05:000wnw119671 0.0 101510
08:00+3wnw118673 0.0 1015276
11:00+8sw126485 0.1 10141135
14:00+8nw226398 0.6 10131103
17:00+9wnw126964 1.8 1013868
20:00+4wsw119461 3.5 101614
21 april, wed
wed2123:00+2sw11986 0.4 101810
02:00+1wsw119815 0.4 101910
05:000wsw11989 0.0 102010
08:00+4sw119098 0.0 1020195
11:00+11ssw12627 0.0 1019950
14:00+13nw134798 0.4 10171812
17:00+12sw125560 0.8 10171140
20:00+6n117873 1.1 102010